Temperature
16 16 16 16 16 15 15 15 15 14 13 13 13 13 13 13 13 13 13 13 13 14 13 13 13 13 13 13 13 13 13 13 12 12 12 12 12 12
15 15 15 15 15 15 15 15 15 15 14 13 13 13 13 13 13 13 13 13 13 13 13 13 13 13 13 13 12 12 12 12 12 12 12 11 11 11
15 15 15 15 15 15 15 15 15 14 14 13 13 13 13 13 12 12 12 12 12 12 12 12 12 12 12 12 12 12 12 12 11 11 11 11 11 11
15 15 15 15 15 15 15 15 14 14 14 13 13 12 12 12 12 12 12 12 12 12 12 12 12 12 11 11 11 11 11 11 11 11 11 10 10 10
14 14 14 14 15 14 14 14 14 14 13 13 13 12 12 12 12 11 11 11 11 11 11 11 11 11 11 11 11 10 10 10 10 10 10 10 10 10
14 14 14 14 14 14 14 14 13 13 13 13 12 12 11 11 11 11 11 11 11 11 10 10 10 10 10 10 10 10 10 10 9 9 9 9 9 9
14 14 14 14 14 13 13 13 13 13 12 12 12 11 11 11 11 11 11 11 10 10 10 10 10 10 10 10 10 9 9 9 9 9 9 8 8 8
14 13 13 13 13 13 13 13 12 12 12 12 12 11 11 11 11 11 10 10 10 10 10 10 10 9 9 9 9 9 9 9 9 8 8 8 8 8
13 13 13 13 13 13 12 12 12 12 12 11 11 11 11 11 10 10 10 10 10 10 10 9 9 9 9 9 9 9 8 8 8 8 8 8 8 8
13 12 12 12 12 12 12 12 12 11 11 11 11 11 10 10 10 10 10 10 9 9 9 9 9 9 9 9 9 8 8 8 8 8 8 8 7 7
12 12 12 12 12 12 12 12 11 11 11 10 10 10 10 10 10 10 10 10 9 9 9 9 9 9 9 8 8 8 8 8 8 8 8 7 7 7
12 12 11 11 11 11 11 11 11 11 11 10 10 10 10 10 10 10 10 9 9 9 9 9 8 8 8 8 8 8 8 8 8 8 7 7 7 7
12 11 11 11 11 11 11 11 10 10 10 10 10 10 10 10 9 9 9 9 9 9 9 8 8 8 8 8 8 8 8 8 8 7 7 7 7 7
11 11 11 11 11 11 10 10 10 10 10 10 10 10 9 9 9 9 9 9 9 8 8 8 8 8 8 8 8 8 7 7 7 7 7 7 7 7
11 11 11 11 10 10 10 10 10 10 10 9 9 9 9 9 9 9 9 9 9 8 8 8 8 8 8 7 7 7 7 7 7 7 7 7 7 7
11 11 10 10 10 10 10 10 10 9 9 9 9 9 9 9 9 9 9 8 8 8 8 8 8 8 8 7 7 7 7 7 7 7 7 7 7 6
11 10 10 10 10 10 10 10 9 9 9 9 9 9 9 9 8 8 8 8 8 8 8 8 8 7 7 7 7 7 7 7 7 7 7 6 6 6
10 10 10 10 10 10 10 9 9 9 9 9 9 9 8 8 8 8 8 8 8 8 8 7 7 7 7 7 7 7 7 7 7 6 6 6 6 6
10 10 10 10 10 10 9 9 9 9 9 9 8 8 8 8 8 8 8 7 7 7 7 7 7 7 7 7 7 7 6 6 6 6 6 6 6 6
10 10 10 10 9 9 9 9 9 9 8 8 8 8 8 8 8 8 7 7 7 7 7 7 7 6 6 6 6 6 6 6 6 6 6 6 6 6
10 9 9 9 9 9 9 9 8 8 8 8 8 8 8 8 8 7 7 7 7 7 7 7 6 6 6 6 6 6 6 6 6 6 5 5 5 5
9 9 9 9 9 9 9 8 8 8 8 8 8 8 7 7 7 7 7 7 7 6 6 6 6 6 6 6 6 6 6 6 6 5 5 5 5 5
9 9 9 9 9 8 8 8 8 8 8 7 7 7 7 7 7 7 7 6 6 6 6 6 6 6 6 6 5 5 5 5 5 5 5 5 5 5
Wind_Speed
1 0 0 0 1 2 3 3 3 2 1 1 0 1 3 4 4 5 6 7 7 7 7 7 6 6 6 6 5 4 4 5 5 5 6 6 6 5
2 2 1 1 1 1 2 2 2 3 2 0 0 1 3 4 6 6 7 8 9 8 8 7 7 7 7 6 6 6 6 6 6 6 6 7 7 7
3 3 3 2 1 1 1 1 2 2 3 1 1 1 2 3 4 6 7 7 8 9 8 8 7 7 6 6 6 6 6 7 7 6 6 7 7 7
4 4 4 3 4 2 2 3 2 2 4 4 1 1 2 2 3 4 5 5 6 7 7 8 7 7 6 6 6 6 6 7 7 7 7 7 7 7
4 4 4 4 4 4 4 4 3 4 4 4 3 2 2 2 3 3 4 4 5 6 7 7 8 8 7 6 6 6 6 6 7 7 7 7 7 7
5 5 4 4 4 4 4 5 5 5 5 5 4 3 2 2 2 2 3 3 2 4 5 6 7 7 6 6 6 6 6 6 6 6 7 7 7 7
6 6 5 6 6 5 5 5 6 5 5 5 4 3 3 2 2 1 2 2 2 2 2 3 4 4 5 5 5 4 4 5 6 6 7 7 7 7
6 6 6 7 8 8 9 8 7 6 6 4 4 3 2 1 1 2 2 1 1 1 1 2 3 2 3 4 4 4 3 2 3 3 4 5 5 6
5 5 5 6 7 7 9 9 8 8 7 5 5 2 2 1 2 2 1 1 1 1 1 1 2 2 2 3 3 2 2 2 2 1 1 2 3 4
6 5 6 5 5 6 7 8 7 6 5 4 3 2 2 2 2 2 2 2 2 2 1 1 1 1 2 3 3 2 2 2 2 2 2 2 2 3
6 6 5 5 6 7 8 7 7 6 7 8 7 6 6 5 4 4 3 2 1 1 1 0 1 1 2 2 3 4 3 3 4 3 3 4 4 4
4 5 6 6 7 7 6 6 6 3 4 5 6 7 6 6 5 3 2 2 1 0 0 0 0 1 1 1 3 4 4 4 5 4 5 5 5 3
3 3 3 5 7 7 6 4 3 3 4 4 4 4 4 4 3 2 1 1 1 0 0 1 0 0 1 2 2 3 3 3 4 4 5 6 6 4
2 1 2 5 6 6 4 4 5 5 4 4 4 3 3 3 2 3 2 1 0 1 1 2 1 1 1 2 2 3 3 3 3 3 4 5 6 6
2 3 3 4 5 4 5 5 4 3 3 3 2 1 2 2 2 2 3 2 3 2 1 1 1 1 1 2 3 2 3 3 3 3 4 4 4 3
2 3 4 5 4 3 3 3 2 2 2 1 0 1 2 2 2 2 2 2 2 2 3 2 1 1 1 2 2 3 3 3 3 3 4 4 4 4
3 2 2 2 2 2 2 2 1 2 1 1 1 1 1 2 2 2 1 1 1 2 3 2 2 2 2 2 2 3 3 4 4 3 3 4 4 4
4 2 1 1 1 1 1 0 0 0 0 0 0 0 0 1 1 1 1 1 1 2 3 3 3 2 2 2 4 4 3 4 4 3 3 3 4 4
3 2 2 2 2 2 1 1 1 1 1 1 1 1 1 1 1 1 1 1 2 2 3 2 2 2 3 5 3 3 3 3 3 3 3 3 4 5
2 3 2 2 2 2 2 2 1 1 1 1 1 1 1 1 1 1 1 2 2 2 3 2 2 2 3 4 4 4 4 3 3 4 4 4 4 6
3 3 3 3 3 3 2 2 1 1 1 1 1 1 1 1 2 2 2 2 2 2 3 4 4 4 3 2 3 4 3 5 6 4 4 4 4 4
3 3 3 3 3 3 2 2 1 1 1 1 2 2 2 2 2 2 2 2 2 3 4 4 3 2 1 3 5 5 5 5 5 7 8 6 3 4
4 3 3 3 3 2 2 2 2 1 1 1 2 2 2 2 2 2 2 2 2 3 3 3 3 2 2 3 4 5 6 6 4 4 4 6 10 12
Wind_Direction
29 52 125 198 166 187 179 181 178 197 242 237 342 19 64 70 74 82 82 82 89 94 97 95 92 89 86 84 82 80 72 66 63 57 52 48 40 32
39 58 56 53 100 160 191 202 189 187 203 182 142 58 75 84 78 80 80 80 80 84 87 89 88 88 88 88 84 78 72 68 68 64 58 53 49 52
41 58 52 50 68 80 112 130 147 156 154 127 77 76 79 75 74 75 77 76 76 76 79 82 83 83 84 84 81 77 72 67 63 60 60 62 64 60
47 55 48 51 58 66 80 84 96 116 143 142 117 79 76 78 75 77 73 76 77 75 77 77 77 75 75 77 76 71 67 63 61 60 61 61 62 62
53 57 54 65 68 71 83 87 90 98 104 124 112 75 68 75 76 73 66 54 66 67 70 69 71 71 69 68 69 71 70 68 63 60 56 56 55 53
52 55 57 72 87 91 91 91 96 96 98 106 103 90 77 66 76 78 63 45 48 54 59 63 64 65 63 62 60 62 64 67 63 56 51 48 48 48
55 53 60 71 80 90 100 101 103 100 102 102 103 99 86 85 78 75 89 69 51 36 39 39 41 42 38 38 42 47 57 62 61 55 52 50 47 44
61 53 58 61 74 84 90 94 101 110 115 111 109 112 109 112 88 102 98 81 58 14 42 35 34 30 12 19 24 33 35 42 48 48 47 44 38 34
62 59 64 59 64 80 83 80 76 78 93 115 118 125 140 154 132 109 89 88 66 22 57 37 17 3 336 350 4 16 8 354 344 352 10 10 8 9
59 61 67 58 62 80 86 78 70 65 75 92 111 114 101 128 147 145 150 112 72 49 56 30 349 321 324 319 324 324 315 314 308 288 279 287 299 318
52 55 66 67 62 80 89 86 74 57 64 77 81 79 79 85 104 101 101 114 78 31 28 0 316 314 312 315 324 320 310 298 287 276 283 286 287 292
56 49 56 69 70 78 88 93 88 66 64 65 59 56 61 72 89 104 131 123 101 355 352 233 314 330 313 315 326 331 328 313 300 290 292 293 289 280
81 56 47 67 76 77 83 89 104 103 83 77 63 50 46 47 50 53 95 136 126 146 223 184 205 272 282 303 315 323 325 317 311 299 296 294 285 264
120 100 74 82 84 80 83 82 85 90 84 75 62 43 30 21 14 21 40 68 149 232 208 178 188 214 258 298 302 316 317 311 305 302 304 303 290 273
132 126 107 95 89 81 72 73 78 82 85 79 61 19 351 344 359 15 29 39 41 35 39 211 226 233 250 274 292 302 311 309 300 303 302 297 286 279
109 87 83 83 83 78 68 65 73 88 108 104 26 347 1 18 25 21 20 15 22 6 14 15 277 214 255 275 278 292 296 297 306 303 298 293 283 264
129 89 74 73 75 67 66 55 53 64 71 40 50 31 16 15 10 10 21 26 17 340 340 355 351 295 264 271 282 286 295 300 299 304 299 297 289 280
131 126 138 145 163 181 175 81 47 37 269 226 146 346 332 338 352 8 18 12 344 329 330 339 347 349 337 285 238 274 293 298 304 302 292 294 301 301
140 166 184 195 202 203 204 206 230 256 235 200 211 236 250 281 318 329 334 334 324 319 321 329 337 340 330 323 307 240 272 301 309 309 294 280 289 303
178 193 210 216 213 210 212 219 236 248 234 233 237 238 234 246 268 283 286 295 299 310 319 320 306 289 283 296 300 301 263 263 292 304 306 296 285 290
201 210 217 217 216 212 212 215 220 236 248 241 245 244 240 246 265 273 277 283 280 292 296 299 300 288 273 278 293 304 301 267 254 271 294 297 303 309
204 210 215 215 213 212 211 211 218 229 240 243 252 252 247 243 259 273 278 282 280 282 287 299 318 325 290 282 292 302 308 317 300 273 256 248 278 296
207 208 209 213 215 209 203 204 210 226 238 251 258 263 262 261 268 272 278 285 293 300 305 315 328 319 302 293 295 299 305 313 319 320 308 276 262 267
Height
1544 1543 1543 1544 1544 1544 1545 1545 1546 1545 1546 1547 1547 1547 1547 1547 1546 1546 1546 1546 1546 1547 1547 1547 1547 1547 1547 1547 1547 1547 1547 1547 1547 1546 1545 1545 1544 1543
1543 1542 1542 1542 1542 1542 1543 1543 1543 1543 1543 1544 1545 1546 1546 1546 1546 1546 1545 1546 1546 1546 1545 1546 1546 1546 1546 1546 1546 1546 1546 1545 1545 1544 1544 1543 1542 1541
1542 1541 1541 1541 1541 1541 1541 1541 1541 1541 1541 1542 1543 1544 1544 1544 1545 1545 1545 1545 1545 1545 1545 1545 1545 1545 1545 1545 1545 1545 1544 1544 1543 1543 1542 1541 1541 1540
1541 1541 1541 1541 1540 1540 1540 1540 1540 1540 1540 1540 1541 1542 1543 1543 1544 1544 1544 1544 1545 1545 1545 1545 1545 1545 1544 1544 1544 1544 1543 1543 1542 1542 1541 1540 1540 1539
1541 1541 1541 1541 1540 1540 1539 1539 1539 1539 1539 1540 1540 1541 1542 1543 1543 1544 1544 1544 1544 1544 1544 1544 1544 1544 1544 1544 1543 1543 1542 1542 1541 1540 1540 1539 1538 1537
1541 1541 1541 1541 1541 1540 1540 1540 1540 1540 1540 1540 1541 1541 1542 1543 1543 1544 1544 1544 1544 1544 1544 1544 1544 1544 1544 1543 1543 1543 1542 1541 1540 1539 1539 1538 1537 1536
1542 1542 1542 1542 1541 1541 1541 1541 1541 1541 1541 1541 1541 1542 1542 1543 1543 1544 1544 1544 1544 1544 1544 1544 1544 1544 1544 1543 1543 1542 1542 1541 1540 1539 1538 1537 1537 1536
1543 1543 1543 1543 1542 1542 1542 1542 1542 1542 1542 1542 1542 1542 1543 1543 1544 1545 1545 1544 1544 1545 1545 1545 1545 1544 1544 1543 1543 1542 1541 1541 1540 1539 1538 1537 1536 1535
1545 1545 1544 1544 1544 1544 1543 1543 1543 1543 1544 1544 1544 1544 1544 1544 1545 1545 1545 1545 1545 1546 1545 1545 1545 1544 1544 1544 1543 1542 1541 1541 1540 1538 1537 1537 1536 1534
1547 1546 1546 1546 1545 1545 1545 1545 1545 1545 1545 1545 1545 1545 1546 1546 1546 1546 1546 1546 1546 1546 1545 1545 1545 1544 1544 1543 1543 1542 1541 1540 1539 1538 1537 1536 1535 1533
1548 1548 1548 1547 1547 1547 1547 1547 1546 1546 1546 1546 1547 1547 1547 1547 1546 1546 1546 1546 1545 1545 1545 1545 1544 1543 1543 1542 1542 1541 1540 1539 1538 1537 1536 1535 1533 1532
1550 1550 1549 1549 1549 1549 1549 1548 1547 1548 1548 1548 1548 1548 1547 1547 1546 1546 1546 1545 1545 1545 1545 1544 1543 1543 1542 1542 1541 1540 1539 1538 1537 1536 1535 1533 1532 1530
1551 1551 1551 1550 1550 1550 1550 1549 1549 1549 1549 1549 1548 1548 1548 1547 1547 1546 1546 1546 1545 1545 1545 1544 1543 1542 1541 1540 1539 1538 1537 1536 1535 1534 1532 1531 1530 1528
1552 1552 1552 1552 1551 1551 1551 1551 1551 1550 1550 1549 1549 1548 1548 1547 1547 1547 1546 1546 1545 1545 1544 1543 1542 1541 1540 1539 1538 1536 1535 1534 1533 1531 1530 1529 1527 1526
1552 1552 1552 1552 1552 1552 1552 1551 1551 1551 1550 1549 1549 1549 1548 1548 1547 1547 1546 1546 1545 1544 1543 1542 1542 1541 1540 1538 1537 1535 1534 1532 1531 1529 1528 1527 1525 1524
1551 1551 1552 1552 1552 1552 1551 1551 1551 1550 1550 1549 1549 1549 1548 1548 1547 1546 1545 1545 1544 1543 1542 1541 1540 1539 1538 1537 1535 1534 1532 1531 1529 1528 1526 1524 1523 1521
1550 1551 1551 1551 1551 1551 1551 1550 1550 1550 1549 1549 1549 1548 1547 1547 1546 1545 1544 1544 1543 1542 1541 1540 1539 1537 1536 1535 1533 1532 1530 1528 1527 1525 1523 1521 1520 1519
1549 1549 1549 1549 1549 1549 1549 1549 1549 1549 1548 1548 1547 1547 1546 1546 1545 1544 1543 1542 1541 1540 1539 1538 1537 1535 1534 1532 1532 1530 1528 1526 1525 1523 1521 1519 1518 1517
1547 1547 1547 1547 1548 1548 1548 1547 1547 1547 1547 1546 1546 1545 1545 1544 1543 1542 1542 1541 1540 1539 1538 1536 1535 1533 1532 1530 1529 1528 1526 1524 1522 1521 1519 1517 1515 1514
1544 1544 1545 1545 1545 1545 1545 1545 1545 1545 1545 1545 1544 1543 1543 1542 1541 1540 1539 1539 1538 1537 1536 1534 1533 1531 1530 1529 1527 1526 1524 1522 1520 1518 1516 1515 1513 1512
1541 1542 1542 1543 1543 1543 1543 1543 1543 1542 1542 1542 1542 1541 1541 1540 1539 1538 1537 1536 1535 1534 1533 1532 1531 1530 1528 1526 1525 1523 1522 1520 1518 1516 1514 1512 1510 1508
1539 1539 1539 1540 1540 1540 1540 1540 1539 1539 1539 1539 1539 1538 1538 1537 1536 1535 1535 1534 1533 1531 1530 1529 1528 1527 1525 1524 1522 1520 1518 1517 1515 1514 1511 1510 1507 1505
1536 1536 1536 1536 1536 1537 1537 1536 1536 1536 1536 1536 1536 1535 1535 1535 1534 1533 1532 1531 1530 1529 1528 1526 1525 1524 1522 1521 1519 1517 1515 1514 1512 1510 1509 1507 1505 1503